Location: Unspecified
(0.0000°N, 0.0000°E)
Time: 22:57:06
(UTC+00:00)

S-56A Canister/Altair - Pass Details

Date: 02 October 2020
Orbit: 633 x 2499 km, 38.9° (Epoch: 28 October)

Event Time Altitude Azimuth Distance (km) Brightness Sun altitude
Rises 10:47:18 0° 241° (WSW) 4,648 11.4 74.1°
Reaches altitude 10° 10:50:05 10° 246° (WSW) 3,891 11.1 74.7°
Maximum altitude 11:00:35 56° 321° (NW) 2,417 10.9 77.3°
Drops below altitude 10° 11:14:47 10° 36° (NE) 5,115 11.9 80.6°
Sets 11:19:06 0° 40° (NE) 6,167 12.2 81.5°
